(6051) Anaximenes = 1992 BX1 = 1981 CP

Discovered at La Silla on 1992-01-30 by E. W. Elst.
(6051) Anaximenes = 1992 BX1

Named for the great Greek philosopher Anaximenes of Miletus. He was born in 545 B.C. and is to be considered, with Thales and Anaximander, one of the three first philosophers in the western world. His principal element was "aer" (vapor, air), from which the various types of matter can be derived by condensation. His thought is typical of the transition from mythology to science. However, he was not completely liberated from mystical tendencies (orphism), since he believed that there is a kind of overarching principle between microcosmos and macrocosmos. [Ref: Minor Planet Circ. 24919]

Orbit

Orbit type: Main Belt

Note: WebGL enabled browser required.

epoch2023-09-13.0
epoch JD2460200.5
perihelion date2022-02-26.65850
perihelion JD2459637.15850
argument of perihelion (°)113.00518
ascending node (°)133.85200
inclination (°)18.10533
eccentricity0.1446130
perihelion distance (AU)2.7198181
Tisserand w.r.t. Jupiter3.1
ΔV w.r.t. Earth (km/sec)11.7
semimajor axis (AU)3.1796347
mean anomaly (°)97.92864
mean daily motion (°/day)0.17383530
aphelion distance (AU)3.639
period (years)5.67
P-vector [x]-0.36015860
P-vector [y]-0.92846540
P-vector [z]-0.09076227
Q-vector [x]0.90557380
Q-vector [y]-0.32458203
Q-vector [z]-0.27309816
absolute magnitude12.63
phase slope0.15
uncertainty0
referenceMPEC 2024-A141
observations used3691
oppositions27
arc length (days)15676
first opposition used1981
last opposition used2024
residual rms (arc-secs)0.52
perturbers coarse indicatorM-v
perturbers precise indicator003Ek
first observation date used1981-02-05.0
last observation date used2024-01-07.0
computer nameMPCLINUX
JD of orbit computation2456966.808186
perihelion JD uncertainty (days)1.0709E-04
argument of perihelion uncertainty (°)2.1001E-05
ascending node uncertainty (°)1.3307E-05
inclination uncertainty (°)4.6132E-06
eccentricity uncertainty 3.5916E-08
perihelion distance uncertainty (AU)1.1307E-07
Minimum Orbit Intersection Distances (in AU)
for orbit epoch: 2460200.5, reference: E2024-AE1
Mercury2.2845
Venus2.03186
Earth1.76371
Mars1.34024
Jupiter1.79085
Saturn5.57973
Uranus15.2377
Neptune26.4127

Observations

3710 total observations over interval: 1981 02 05.24792 – 2024 01 07.248389
These data are available for download (format description).

Date (UT) J2000 RA J2000 Dec Magn Location Ref
1981 02 05.24792 08 45 20.94 +16 36 55.0 17.5   688 – Lowell Observatory, Anderson Mesa Station MPC 5885
1981 02 08.18056 08 43 03.60 +16 58 41.8 17.5   688 – Lowell Observatory, Anderson Mesa Station MPC 5885
1981 02 08.22431 08 43 01.41 +16 59 03.0   688 – Lowell Observatory, Anderson Mesa Station MPC 5885
1992 01 30.18542 07 29 55.23 +14 03 35.1 18.5   809 – European Southern Observatory, La Silla MPC 20111
1992 01 30.19861 07 29 54.63 +14 03 40.2   809 – European Southern Observatory, La Silla MPC 20111
1992 01 30.21181 07 29 53.98 +14 03 44.5   809 – European Southern Observatory, La Silla MPC 20111
1992 02 02.13056 07 27 47.01 +14 21 34.3   809 – European Southern Observatory, La Silla MPC 20111
1992 02 02.14375 07 27 46.42 +14 21 38.8   809 – European Southern Observatory, La Silla MPC 20111
1992 02 02.15694 07 27 45.78 +14 21 43.0   809 – European Southern Observatory, La Silla MPC 20111
1992 02 06.13125 07 25 03.00 +14 45 56.4   809 – European Southern Observatory, La Silla MPC 20298
1992 02 06.14444 07 25 02.48 +14 46 00.3   809 – European Southern Observatory, La Silla MPC 20298
1992 02 06.15764 07 25 01.89 +14 46 05.0   809 – European Southern Observatory, La Silla MPC 20298
1992 02 11.19722 07 21 55.93 +15 16 29.6   809 – European Southern Observatory, La Silla MPC 20298
1992 02 11.21042 07 21 55.41 +15 16 34.6   809 – European Southern Observatory, La Silla MPC 20298
1993 01 21.40186 13 20 02.07 +07 10 03.2   801 – Oak Ridge Observatory MPC 21740
1993 01 21.42581 13 20 02.99 +07 10 10.2   801 – Oak Ridge Observatory MPC 21740
1993 01 26.41426 13 23 12.97 +07 34 28.6   801 – Oak Ridge Observatory MPC 21740
1993 01 26.44201 13 23 13.95 +07 34 37.9   801 – Oak Ridge Observatory MPC 21740
1993 02 20.36572 13 31 39.56 +10 38 26.6   801 – Oak Ridge Observatory MPC 21892
1993 02 20.38966 13 31 39.66 +10 38 39.9   801 – Oak Ridge Observatory MPC 21892
1994 06 15.37040 20 52 49.42 -09 36 29.5 16.9 V 691 – Steward Observatory, Kitt Peak-Spacewatch MPC 23726
1994 06 15.39411 20 52 49.22 -09 36 34.9   691 – Steward Observatory, Kitt Peak-Spacewatch MPC 23726
1994 06 15.41788 20 52 49.02 -09 36 40.5   691 – Steward Observatory, Kitt Peak-Spacewatch MPC 23726
1994 06 16.40914 20 52 41.26 -09 40 35.2 16.6 V 691 – Steward Observatory, Kitt Peak-Spacewatch MPS 80516
1994 06 16.41667 20 52 41.19 -09 40 37.1 16.6 V 691 – Steward Observatory, Kitt Peak-Spacewatch MPS 80516
1994 06 16.43229 20 52 41.03 -09 40 40.6 16.6 V 691 – Steward Observatory, Kitt Peak-Spacewatch MPS 80516
1994 07 10.01458 20 43 29.04 -12 00 57.4   033 – Karl Schwarzschild Observatory, Tautenburg MPC 23894
1994 07 10.38628 20 43 15.35 -12 03 48.4   675 – Palomar Mountain MPC 28424
1994 07 10.43229 20 43 13.54 -12 04 09.3   675 – Palomar Mountain MPC 28424
1994 07 10.98681 20 42 53.11 -12 08 29.9 17.3   033 – Karl Schwarzschild Observatory, Tautenburg MPC 23894
1994 07 11.02396 20 42 51.58 -12 08 47.1   033 – Karl Schwarzschild Observatory, Tautenburg MPC 23894
1994 07 11.98750 20 42 15.03 -12 16 21.1   033 – Karl Schwarzschild Observatory, Tautenburg MPC 23894
1994 07 12.25572 20 42 04.74 -12 18 29.1   801 – Oak Ridge Observatory MPC 23733
1994 07 12.27470 20 42 03.97 -12 18 38.4   801 – Oak Ridge Observatory MPC 23733
1994 07 13.21343 20 41 27.54 -12 26 09.9   801 – Oak Ridge Observatory MPC 23733
1994 07 13.23087 20 41 26.81 -12 26 18.7   801 – Oak Ridge Observatory MPC 23733
1996 11 21.64740 05 33 24.82 +02 43 49.5 18.5 I 388 – Tokyo-Mitaka MPC 28376
1996 11 21.65226 05 33 24.64 +02 43 49.4 18.5 I 388 – Tokyo-Mitaka MPC 28376
1998 02 24.31542 09 10 15.37 +19 24 13.3 17.6 V 566 – Haleakala-NEAT/GEODSS MPS 614
1998 02 24.32571 09 10 14.94 +19 24 18.1 17.4 V 566 – Haleakala-NEAT/GEODSS MPS 614
1998 02 24.33547 09 10 14.55 +19 24 22.1 17.6 V 566 – Haleakala-NEAT/GEODSS MPS 614
1998 03 01.17399 09 07 03.34 +19 57 56.7 17.2 R 699 – Lowell Observatory-LONEOS MPS 614
1998 03 01.18209 09 07 03.05 +19 58 00.0 17.4 R 699 – Lowell Observatory-LONEOS MPS 614
1998 03 01.19019 09 07 02.75 +19 58 03.2 17.4 R 699 – Lowell Observatory-LONEOS MPS 614
1998 03 01.68850 09 06 44.01 +20 01 21.1 17.3   327 – Peking Observatory, Xinglong Station MPS 614
1998 03 01.69854 09 06 43.64 +20 01 25.1   327 – Peking Observatory, Xinglong Station MPS 614
1998 03 01.70855 09 06 43.25 +20 01 29.1   327 – Peking Observatory, Xinglong Station MPS 614
1998 03 03.09953 09 05 53.02 +20 10 33.5 17.7 R 699 – Lowell Observatory-LONEOS MPS 851
1998 03 03.10762 09 05 52.64 +20 10 36.3 17.8 R 699 – Lowell Observatory-LONEOS MPS 851
1998 03 03.11572 09 05 52.41 +20 10 39.5 17.6 R 699 – Lowell Observatory-LONEOS MPS 851
1999 02 24.41445 15 53 01.82 +00 40 19.0 17.8   704 – Lincoln Laboratory ETS, New Mexico MPS 4385
1999 02 24.43599 15 53 02.88 +00 40 23.4 17.8   704 – Lincoln Laboratory ETS, New Mexico MPS 4385
1999 02 24.44647 15 53 03.34 +00 40 26.3 18.5   704 – Lincoln Laboratory ETS, New Mexico MPS 4385
1999 02 24.45684 15 53 03.89 +00 40 30.2 18.2   704 – Lincoln Laboratory ETS, New Mexico MPS 4385
1999 05 12.29972 15 54 13.48 +08 32 31.0 17.3   704 – Lincoln Laboratory ETS, New Mexico MPS 5417
1999 05 12.31268 15 54 12.65 +08 32 33.2   704 – Lincoln Laboratory ETS, New Mexico MPS 5417
1999 05 12.32564 15 54 12.15 +08 32 35.3   704 – Lincoln Laboratory ETS, New Mexico MPS 5417
1999 05 12.33862 15 54 11.46 +08 32 37.7   704 – Lincoln Laboratory ETS, New Mexico MPS 5417
1999 05 12.35156 15 54 10.97 +08 32 38.9   704 – Lincoln Laboratory ETS, New Mexico MPS 5417
1999 05 15.32398 15 51 57.51 +08 39 09.1 17.5   704 – Lincoln Laboratory ETS, New Mexico MPS 5417
1999 05 15.33581 15 51 56.92 +08 39 10.2 17.7   704 – Lincoln Laboratory ETS, New Mexico MPS 5417
1999 05 15.34756 15 51 56.30 +08 39 11.2 17.4   704 – Lincoln Laboratory ETS, New Mexico MPS 5417
1999 05 15.35934 15 51 55.73 +08 39 12.7 16.9   704 – Lincoln Laboratory ETS, New Mexico MPS 5417
1999 05 15.37143 15 51 55.17 +08 39 14.8 17.3   704 – Lincoln Laboratory ETS, New Mexico MPS 5417
1999 05 17.32346 15 50 26.27 +08 42 15.8 17.6   704 – Lincoln Laboratory ETS, New Mexico MPS 5417
1999 05 17.33567 15 50 25.57 +08 42 16.0 17.8   704 – Lincoln Laboratory ETS, New Mexico MPS 5417
1999 05 17.34789 15 50 24.94 +08 42 17.1 17.8   704 – Lincoln Laboratory ETS, New Mexico MPS 5417
1999 05 17.36012 15 50 24.41 +08 42 16.8   704 – Lincoln Laboratory ETS, New Mexico MPS 5417
1999 06 07.37005 15 35 14.69 +08 10 47.9 16.7   704 – Lincoln Laboratory ETS, New Mexico MPS 5417
1999 06 07.37965 15 35 14.22 +08 10 47.4 18.1   704 – Lincoln Laboratory ETS, New Mexico MPS 5417
1999 06 07.38898 15 35 13.93 +08 10 42.1 17.5   704 – Lincoln Laboratory ETS, New Mexico MPS 5417
1999 06 07.39830 15 35 13.57 +08 10 39.8 17.6   704 – Lincoln Laboratory ETS, New Mexico MPS 5417
1999 06 07.40762 15 35 13.19 +08 10 37.4 17.9   704 – Lincoln Laboratory ETS, New Mexico MPS 5417
2000 07 07.38180 23 07 39.17 -11 20 51.3 17.1   704 – Lincoln Laboratory ETS, New Mexico MPS 17242
2000 07 07.39748 23 07 39.33 -11 20 56.4 18.0   704 – Lincoln Laboratory ETS, New Mexico MPS 17242
2000 07 07.41080 23 07 39.43 -11 21 00.9 18.0   704 – Lincoln Laboratory ETS, New Mexico MPS 17242
2000 07 07.42630 23 07 39.52 -11 21 06.7 17.9   704 – Lincoln Laboratory ETS, New Mexico MPS 17242
2000 08 01.32315 23 04 37.28 -14 26 14.9 17.3   704 – Lincoln Laboratory ETS, New Mexico MPS 18669
2000 08 01.33771 23 04 36.96 -14 26 23.1 17.2   704 – Lincoln Laboratory ETS, New Mexico MPS 18669
2000 08 01.35265 23 04 36.60 -14 26 31.0 17.2   704 – Lincoln Laboratory ETS, New Mexico MPS 18669
